Flag for Germany Weather past 2 weeks in Eberswalde, Brandenburg, Germany

Now
70 °F

Light rain. Partly sunny.


Feels Like: 70 °F
Forecast: 54 / 72 °F
Wind: 6 mph from West

Location: Berlin-Tegel

Current Time: Aug 29, 2014 at 2:35:38 PM

Latest Report: Aug 29, 2014 at 1:50 PM


Visibility: N/A

Pressure: 29.95 "Hg

Humidity: 64%

Dew point: 57 °F

Location of EberswaldeLocation

Historic Weather in Eberswalde — Graph

°F

Eberswalde temperature yesterday

Maximum temperature yesterday: 73 °F (at 2:50 PM)
Minimum temperature yesterday: 46 °F (at 5:20 AM)
Average temperature yesterday: 61 °F

Past Weeks' High & Low Weather Summary

 TemperatureHumidityPressure
High73 °F (Aug 28, 2:50 PM)94% (Aug 16, 3:20 AM)30.07 "Hg (Aug 16, 3:20 AM)
Low45 °F (Aug 27, 5:50 AM)25% (Aug 28, 5:20 PM)29.59 "Hg (Aug 18, 2:50 PM)
Average60 °F64%29.89 "Hg
* Reported Aug 14 1:20 PM — Aug 29 1:20 PM, Eberswalde, Weather by CustomWeather, © 2014

Note: Actual official high and low records may vary slightly from our data, if they occured in-between our weather recording intervals... More about our weather records

Advertising

Eberswalde weather history for previous 24 hours

 ConditionsComfort  
Time TempWeatherWind HumidityBarometerVisibility
1:20 PM
Aug 29
70 °FPartly sunny.8 mph64%29.95 "HgN/A
12:50 PM70 °FBroken clouds.6 mph60%29.95 "HgN/A
12:20 PM70 °FBroken clouds.5 mph57%29.95 "HgN/A
11:50 AM70 °FPartly sunny.5 mph53%29.95 "HgN/A
11:20 AM68 °FPartly sunny.5 mph56%29.95 "HgN/A
10:50 AM66 °FPartly sunny.5 mph60%29.95 "HgN/A
10:20 AM66 °FBroken clouds.6 mph56%29.95 "HgN/A
9:50 AM64 °FBroken clouds.6 mph60%29.95 "HgN/A
9:20 AM63 °FPartly sunny.6 mph59%29.95 "HgN/A
8:50 AM63 °FSunny.6 mph59%29.95 "Hg10 mi
8:20 AM61 °FSunny.5 mph63%29.95 "Hg10 mi
7:50 AM59 °FSunny.5 mph63%29.95 "Hg10 mi
7:20 AM57 °FSunny.3 mph67%29.95 "Hg10 mi
6:50 AM57 °FClear.3 mph63%29.98 "Hg10 mi
6:20 AM55 °FClear.2 mph67%29.98 "Hg10 mi
5:50 AM55 °FClear.2 mph72%29.98 "Hg10 mi
5:20 AM57 °FClear.2 mph67%29.98 "Hg10 mi
4:50 AM57 °FClear.2 mph67%29.98 "Hg10 mi
4:20 AM57 °FClear.2 mph67%29.98 "Hg10 mi
3:50 AM57 °FClear.3 mph67%29.98 "Hg10 mi
3:20 AM57 °FClear.3 mph67%29.98 "Hg10 mi
2:50 AM55 °FClear.1 mph72%30.01 "Hg10 mi
2:20 AM55 °FClear.2 mph72%30.01 "Hg10 mi
1:50 AM57 °FClear.2 mph67%30.01 "Hg10 mi
1:20 AM55 °FClear.2 mph72%30.01 "Hg10 mi
12:50 AM55 °FClear.1 mph72%30.01 "Hg10 mi
12:20 AM57 °FClear.1 mph67%30.01 "Hg10 mi
11:50 PM
Aug 28
57 °FClear.1 mph67%30.01 "Hg10 mi
11:20 PM59 °FClear.1 mph59%30.01 "Hg10 mi
10:50 PM61 °FClear.2 mph55%30.01 "Hg10 mi
10:20 PM61 °FClear.2 mph52%30.01 "Hg10 mi
9:50 PM61 °FClear.1 mph52%30.01 "Hg10 mi
9:20 PM63 °FClear.No wind49%30.01 "Hg10 mi
8:50 PM64 °FSunny.2 mph46%30.01 "Hg10 mi
8:20 PM66 °FSunny.No wind40%30.01 "Hg10 mi
7:50 PM68 °FSunny.2 mph35%30.01 "Hg10 mi
7:20 PM72 °FSunny.3 mph31%30.01 "Hg10 mi
6:50 PM72 °FSunny.6 mph29%30.01 "Hg10 mi
6:20 PM73 °FSunny.7 mph27%30.01 "Hg10 mi
5:50 PM73 °FSunny.7 mph25%30.01 "Hg10 mi
5:20 PM73 °FPassing clouds.7 mph25%30.01 "HgN/A
4:50 PM73 °FSunny.8 mph27%30.01 "Hg10 mi
4:20 PM73 °FSunny.6 mph29%30.04 "Hg10 mi
3:50 PM73 °FSunny.10 mph27%30.04 "Hg10 mi
3:20 PM73 °FPassing clouds.8 mph29%30.04 "HgN/A
2:50 PM73 °FSunny.5 mph27%30.04 "Hg10 mi
2:20 PM72 °FSunny.6 mph29%30.04 "Hg10 mi
Weather by CustomWeather, © 2014

See weather overviewHow to use our weather pages